Location: Cold Norton
(51.6667°N, 0.6667°E)
Time: 02:05:13
(UTC+00:00)

Cosmos 540 Rocket - Pass Details

Date: 18 November 2025
Orbit: 735 x 747 km, 74.1° (Epoch: 13 December)

Event Time Altitude Azimuth Distance (km) Brightness Sun altitude
Rises 16:35:55 0° 337° (NNW) 3,203 6.7 -5.3°
Reaches altitude 10° 16:38:23 10° 343° (NNW) 2,274 5.9 -5.7°
Maximum altitude 16:43:21 47° 58° (ENE) 984 3.7 -6.4°
Drops below altitude 10° 16:48:17 10° 132° (SE) 2,252 5.7 -7.1°
Sets 16:50:42 0° 138° (SE) 3,169 6.5 -7.4°
